Regional Weather Roundup
Issued by NWS Midland/Odessa, TX

Home | Current Version | Previous Version | Text Only | Print | Product List | Glossary On
Versions: 1 2 3 4 5 6 7 8 9 10 11 12 13 14 15 16 17 18 19 20 21 22 23 24 25 26 27 28 29 30 31 32 33 34 35 36 37 38 39 40 41 42 43 44 45 46 47 48 49 50
000
ASUS44 KMAF 270901
RWRMAF
MIDLAND AREA WEATHER ROUNDUP
NATIONAL WEATHER SERVICE MIDLAND TX
300 AM CST TUE JAN 27 2015

...IN SOUTHWEST TEXAS AND SOUTHEAST NEW MEXICO...

CITY           SKY/WX    TMP DP  RH WIND       PRES   REMARKS
ALPINE         PTCLDY    41  31  67 S7        30.35F WCI  37
ANDREWS        FAIR      43  32  64 NW9       30.24S WCI  37
ARTESIA        CLEAR     36  36 100 NW6       30.29S WCI  31
BIG SPRING     PTCLDY    41  34  76 SE7       30.24F WCI  36
CARLSBAD       CLEAR     37  32  82 NW7       30.25S WCI  32
DRYDEN           N/A     50  37  61 W8        30.21S
FORT STOCKTON  CLEAR     47  37  68 SW12      30.24S
GUAD PASS      NOT AVBL
HOBBS          PTCLDY    39  32  75 NW10      30.26S WCI  32
MARFA          MOCLDY    37  32  81 NW5       30.32S WCI  34
MIDLAND AIRPK  PTCLDY    44  35  69 W8        30.23S WCI  40
MIDLAND INTL   CLEAR     39  33  79 SW6       30.22S WCI  35
ODESSA           N/A     42  33  70 NW6       30.23F WCI  38
PECOS          PTCLDY    41  36  83 W7        30.26S WCI  36
PRESIDIO       FAIR      49  39  70 NE3       30.29S
SEMINOLE       PTCLDY    39  32  75 NW9       30.25S WCI  33
SNYDER         MOCLDY   N/A N/A N/A W5        30.20F
WINK           PTCLDY    36  29  75 N6        30.23S WCI  31
$$
...OTHER STATIONS IN TEXAS...

CITY           SKY/WX    TMP DP  RH WIND       PRES   REMARKS
ABILENE        PTCLDY    45  34  65 S7        30.17F
AMARILLO       PTCLDY    45  34  65 W5        30.23S
AUSTIN         PTCLDY    47  37  68 SW6       30.14F
BROWNSVILLE    PTCLDY    53  49  86 S3        30.20F
CORPUS CHRISTI MOCLDY    49  42  77 SW9       30.19F
DALLAS FTW     PTCLDY    50  36  58 W3        30.08S
DEL RIO        PTCLDY    46  41  82 NW5       30.20F
EL PASO        LGT RAIN  49  35  58 N5        30.28F
HOUSTON INT    PTCLDY    53  42  66 W6        30.12F
LUBBOCK        PTCLDY    38  33  82 NW7       30.21S WCI  33
SAN ANGELO     PTCLDY    38  34  85 SW7       30.20F WCI  33
SAN ANTONIO    MOCLDY    46  38  73 NW6       30.18S
WACO           PTCLDY    43  37  79 S5        30.10F
WICHITA FALLS  NOT AVBL
$$
...OTHER LOCATIONS IN NEW MEXICO...

CITY           SKY/WX    TMP DP  RH WIND       PRES   REMARKS
ALAMAGORDO     PTCLDY    36  27  69 CALM      30.30F
ALBUQUERQUE    PTCLDY    38  26  62 NE5       30.34S WCI  34
CANNON AFB     CLEAR     41  29  63 NW9       30.26S WCI  35
CLOVIS         CLEAR     43  28  56 NW10      30.26S WCI  37
HOLLOMAN AFB   PTCLDY    33  29  85 CALM      30.29S
ROSWELL        CLEAR     39  32  76 N7        30.27S WCI  34
RUIDOSO        PTCLDY    39  16  38 CALM      30.38R
SANTA FE       PTCLDY    34  26  72 N13       30.36  WCI  25
TRUTH OR CONSE PTCLDY    43  26  51 NW7       30.30F WCI  39
TUCUMCARI      LGT RAIN  36  31  82 W8        30.26S WCI  30
$$


USA.gov is the U.S. government's official web portal to all federal, state and local government web resources and services.